This is the latest recevied weather packets stored in our database for station/object OK2ILA-3. If no packets are shown the sender has not sent any weather packets the latest 10 day(s).
| Time | Temp. | Humidity | Pressure | Rain* | Wind** | Luminosity | Snow |
|---|---|---|---|---|---|---|---|
| 1777765126 | 10.56° C | 100% | 4352 hPa | 0 mm | - | - | - |
| 1777764520 | 11.67° C | 8% | 0 hPa | 0 mm | - | - | - |
| 1777763916 | 11.67° C | 100% | 0 hPa | 0 mm | - | - | - |
| 1777763308 | 11.67° C | 3% | 0 hPa | 0 mm | - | - | - |
| 1777762700 | 11.67° C | 95% | 53.2 hPa | 0 mm | - | - | - |
| 1777762092 | 11.67° C | 4% | 851.2 hPa | 0 mm | - | - | - |
| 1777760880 | 11.67° C | 3% | 851.2 hPa | 0 mm | - | - | - |
| 1777760276 | 11.67° C | 37% | 851.2 hPa | 0 mm | - | - | - |
| 1777759673 | 11.67° C | 100% | 851.2 hPa | 0 mm | - | - | - |
| 1777759066 | 11.67° C | 3% | 851.2 hPa | 0 mm | - | - | - |
| 1777758460 | 11.67° C | 26% | 3.5 hPa | 0 mm | - | - | - |
| 1777757855 | 11.67° C | 3% | 3.5 hPa | 0 mm | - | - | - |
| 1777756644 | 12.22° C | 39% | 896.2 hPa | 0 mm | - | - | - |
| 1777756041 | 12.22° C | 12% | 896.2 hPa | 0 mm | - | - | - |
| 1777755434 | 12.22° C | 100% | 896.2 hPa | 0 mm | - | - | - |
| 1777754829 | 12.78° C | 12% | - | 0 mm | - | - | - |
| 1777754226 | 12.78° C | 14% | - | 0 mm | - | - | - |
| 1777753622 | 12.78° C | 100% | - | 0 mm | - | - | - |
| 1777751821 | 13.33° C | 2% | 56 hPa | 0 mm | - | - | - |
| 1777750914 | 13.89° C | 93% | 4352 hPa | 0 mm | - | - | - |
| 1777749102 | 15° C | 100% | 2560 hPa | 0 mm | - | - | - |
| 1777748195 | 15.56° C | 12% | 2560 hPa | 0 mm | - | - | - |
| 1777747291 | 16.11° C | 3% | 4096 hPa | 0 mm | - | - | - |
| 1777746382 | 16.11° C | 26% | 4096 hPa | 0 mm | - | - | - |
| 1777744566 | 16.11° C | 13% | 4096 hPa | 0 mm | - | - | - |
* Rain latest 24 hours (hover to see other rain measurements)
** Current wind speed in m/s (hover to see current wind gust speed)